User: anonymous   Login
Location: Newark
(34.6283°N, 36.0776°E)
Time: 23:07:02
(UTC+00:00)
Language:

Tiros 1 - Orbit

View from above orbital plane
View from above orbital plane
View from above satellite
View from above satellite

Ground track
Ground track

The orbit data is extracted from the following two-line orbital elements,

1    29U 60002B   19260.12375753 -.00000128  00000-0  11976-4 0  9990
2    29  48.3793 163.2279 0023624 139.6425 220.6245 14.74317628178183
Epoch (UTC): 17 September 2019 02:58:12
Eccentricity: 0.0023624
inclination: 48.3793°
perigee height: 631 km
apogee height: 664 km
right ascension of ascending node: 163.2279°
argument of perigee: 139.6425°
revolutions per day: 14.74317628
mean anomaly at epoch: 220.6245°
orbit number at epoch: 17818

The dashed part of the orbit path shows where the satellite is in the earth's shadow,  

DLR